Volver al catálogo

ASC 1

ActivoComunicacionesGEO
NORAD 15994·PAYLOAD·🇺🇸 United States

Lanzado Aug 27, 1985 desde Cape Canaveral Space Force Station

Loading…

TLE

ActualizadoSource: Space-Track

Época: Sep 14, 2026, 06:26 UTC

1 15994U 85076C   26257.26864056 -.00000219  00000-0  00000-0 0  9996
2 15994  13.7459 342.6673 0001978 152.8767 225.7905  1.00302081118871

Sigue ASC 1 en tiempo real con AllMySat

Download on the App Store